Location: Aalen
(48.8330°N, 10.1000°E)
Time: 03:02:20
(UTC+01:00)

BlueWalker 3 - Pass Details

Date: 05 December 2022
Orbit: 499 x 517 km, 53.2° (Epoch: 26 January)

Event Time Altitude Azimuth Distance (km) Brightness Sun altitude
Rises 17:34:39 0° 286° (WNW) 2,635 6.5 -11.1°
Reaches altitude 10° 17:36:57 10° 293° (WNW) 1,744 5.4 -11.5°
Maximum altitude 17:40:44 44° 6° (N) 714 2.5 -12.1°
Enters shadow 17:43:08 20° 71° (ENE) 1,231 3.2 -12.4°
